星链-4171 (STARLINK-4171 )

导读

STARLINK-4171是美国SpaceX星链计划中的一颗卫星,于2022年6月17日发射升空,属于星链低轨互联网星座组网卫星。星链星座旨在为全球提供高速低延迟宽带互联网覆盖,该卫星入轨后承担相关通信服务任务,推进星链星座全球组网进程,拓展全球卫星互联网服务覆盖范围。

基本信息
目录编号:
52878
目录名称:
STARLINK-4171
国际标识:
2022-062BA
轨道中心:
EARTH
卫星名称:
星链-4171
卫星全名:
星链-4171 (STARLINK-4171 )
卫星状态:
在轨 (已飞行1540 天)
发射日期:
2022-06-17 UTC
国别 :
美国 (US)
星等 :
--
轨道信息
数据来源 国际轨道数据 AOE轨道数据
星历时间 2026-09-03T19:36:57+0800
19小时前
查看轨道信息
2026-09-04T02:00:00+0800
12小时前
查看轨道信息
半长轴 6840.889km 6840.854km
偏心率 0.0001121 0.0001106
轨道倾角 53.159° 53.159°
近地点辐角 92.229° 90.855°
升交点赤经 282.933° 281.691°
平近点角 267.885° 299.474°
近地点 461.985km 461.96km
远地点 463.519km 463.474km
周期 93.849分钟 93.848分钟
每日圈数 15.343837 15.343954
详细信息
固有亮度:
5
最大亮度:
2.5
卫星平台:
Starlink v1.5
覆盖范围:
全球
运营商:
太空探索技术公司
运营商所在国:
美国
制造商(研发单位):
太空探索技术公司
制造商所在国:
美国
使用方式:
暂无
卫星简介
星链(Starlink)计划是由太空探索技术公司(SpaceX)提出的一个巨型低轨卫星互联网星座项目,计划在2019年至2024年间在太空搭建由约1.2万颗卫星组成的“星链”网络,其中1584颗将部署在地球上空550千米处的近地轨道,并从2020年开始工作。该卫星仍在工作。
2D轨道图
3D轨道图
轨道高度分析图
轨道倾角分析图
轨道综合分析图
查看轨道综合分析图
交会数据列表
事件ID 空间交会对象 最接近时刻(TCA) 交会距离 交会风险概率(CRP) 交会风险指数(CRI) 操作
CDM_260905-011105-287806-623121
2026-09-05T
01:11:59+0000
0.715 km
远距离
7.002026E-5 中风险 0.72
CDM_260905-035805-287806-601221
2026-09-05T
03:58:29+0000
0.747 km
远距离
4.377951E-5 中风险 0.68
CDM_260905-090105-287806-637521
2026-09-05T
09:01:17+0000
1.458 km
极远距离
6.406594E-6 低风险 0.51
CDM_260905-024505-287806-623121
2026-09-05T
02:45:46+0000
2.089 km
极远距离
2.26154E-6 低风险 0.42
CDM_260905-103505-287806-637521
2026-09-05T
10:35:04+0000
2.116 km
极远距离
2.189241E-6 低风险 0.42
CDM_260905-053205-287806-601221
2026-09-05T
05:32:17+0000
2.113 km
极远距离
1.62433E-6 低风险 0.39
CDM_260905-051505-016105-287821
2026-09-05T
05:15:04+0000
2.901 km
极远距离
1.123755E-6 低风险 0.36
CDM_260903-190805-210805-287823
2026-09-03T
19:08:01+0000
2.544 km
极远距离
1.07054E-6 低风险 0.36